Location: Sunny Point
(33.0946°N, 85.0574°W)
Time: 01:28:46
(UTC+00:00)

BlueWalker 3 - Visible Passes

Search period start: 22 May 2024 00:00
Search period end: 01 June 2024 00:00
Orbit: 482 x 494 km, 53.2° (Epoch: 20 May)

Date Brightness Start Highest point End Pass type
(mag) Time Alt. Az. Time Alt. Az. Time Alt. Az.
25 May 4.8 09:51:20 10° SE 09:52:00 10° ESE 09:52:39 10° ESE visible
29 May 1.8 09:44:44 13° SW 09:48:03 88° NW 09:51:48 10° NE visible
30 May 1.8 09:20:24 24° SW 09:22:35 85° SE 09:26:20 10° NE visible
31 May 1.8 08:55:59 43° SSW 08:57:06 78° SE 09:00:50 10° NE visible
